Time,TemperatureF,DewpointF,PressureIn,WindDirection,WindDirectionDegrees,WindSpeedMPH,WindSpeedGustMPH,Humidity,HourlyPrecipIn,Conditions,Clouds,dailyrainin,SoftwareType,DateUTC
2013-03-10 07:12:00,49.0,34.0,-100.00,SE,145,11.0,16.0,55,-99.99,,,-99.99,,2013-03-10 11:12:00,
2013-03-10 07:22:00,49.0,34.0,-100.00,SSE,155,9.0,16.0,56,-99.99,,,-99.99,,2013-03-10 11:22:00,
2013-03-10 07:32:00,49.0,34.0,-100.00,SE,140,11.0,14.0,57,-99.99,,,-99.99,,2013-03-10 11:32:00,
2013-03-10 07:42:00,49.0,34.0,-100.00,SE,145,12.0,16.0,56,-99.99,,,-99.99,,2013-03-10 11:42:00,
2013-03-10 07:52:00,49.0,34.0,-100.00,SE,140,12.0,16.0,56,-99.99,,,-99.99,,2013-03-10 11:52:00,
2013-03-10 08:01:00,49.0,34.0,-100.00,SE,140,12.0,16.0,56,-99.99,,,-99.99,,2013-03-10 12:01:00,
2013-03-10 08:11:00,49.0,34.0,-100.00,SE,140,14.0,17.0,57,-99.99,,,-99.99,,2013-03-10 12:11:00,
2013-03-10 08:21:00,48.0,35.0,-100.00,SE,135,14.0,18.0,58,-99.99,,,-99.99,,2013-03-10 12:21:00,
2013-03-10 08:31:00,49.0,35.0,-100.00,SE,145,12.0,17.0,58,-99.99,,,-99.99,,2013-03-10 12:31:00,
2013-03-10 08:42:00,49.0,34.0,-100.00,SE,145,13.0,16.0,57,-99.99,,,-99.99,,2013-03-10 12:42:00,
2013-03-10 08:51:00,49.0,34.0,-100.00,SE,145,14.0,18.0,57,-99.99,,,-99.99,,2013-03-10 12:51:00,
2013-03-10 09:01:00,49.0,34.0,-100.00,SE,145,14.0,18.0,56,-99.99,,,-99.99,,2013-03-10 13:01:00,
2013-03-10 09:11:00,50.0,34.0,-100.00,SE,145,17.0,21.0,55,-99.99,,,-99.99,,2013-03-10 13:11:00,
2013-03-10 09:21:00,49.0,34.0,-100.00,SE,140,16.0,22.0,55,-99.99,,,-99.99,,2013-03-10 13:21:00,
2013-03-10 09:32:00,50.0,35.0,-100.00,SE,145,14.0,18.0,55,-99.99,,,-99.99,,2013-03-10 13:32:00,
2013-03-10 09:41:00,51.0,35.0,-100.00,SE,140,14.0,19.0,54,-99.99,,,-99.99,,2013-03-10 13:41:00,
2013-03-10 09:52:00,52.0,36.0,-100.00,SE,140,17.0,21.0,53,-99.99,,,-99.99,,2013-03-10 13:52:00,
2013-03-10 10:02:00,53.0,36.0,-100.00,SE,135,14.0,19.0,52,-99.99,,,-99.99,,2013-03-10 14:02:00,
2013-03-10 10:11:00,53.0,36.0,-100.00,SE,145,16.0,22.0,51,-99.99,,,-99.99,,2013-03-10 14:11:00,
2013-03-10 10:21:00,54.0,37.0,-100.00,SE,140,17.0,24.0,50,-99.99,,,-99.99,,2013-03-10 14:21:00,
2013-03-10 10:32:00,55.0,37.0,-100.00,SE,140,17.0,22.0,50,-99.99,,,-99.99,,2013-03-10 14:32:00,
2013-03-10 10:42:00,55.0,36.0,-100.00,SE,140,17.0,24.0,48,-99.99,,,-99.99,,2013-03-10 14:42:00,
2013-03-10 10:51:00,56.0,37.0,-100.00,SE,135,15.0,22.0,48,-99.99,,,-99.99,,2013-03-10 14:51:00,
2013-03-10 11:01:00,57.0,37.0,-100.00,SE,130,19.0,26.0,48,-99.99,,,-99.99,,2013-03-10 15:01:00,
2013-03-10 11:11:00,57.0,37.0,-100.00,SE,130,19.0,26.0,48,-99.99,,,-99.99,,2013-03-10 15:11:00,
2013-03-10 11:21:00,56.0,37.0,-100.00,SE,130,15.0,22.0,48,-99.99,,,-99.99,,2013-03-10 15:21:00,
2013-03-10 11:32:00,56.0,37.0,-100.00,SE,140,17.0,22.0,48,-99.99,,,-99.99,,2013-03-10 15:32:00,
2013-03-10 11:42:00,56.0,38.0,-100.00,SE,135,15.0,22.0,49,-99.99,,,-99.99,,2013-03-10 15:42:00,
2013-03-10 11:50:00,59.0,38.0,-100.00,SSE,150,17.0,27.0,46,-99.99,,,-99.99,,2013-03-10 15:50:00,
2013-03-10 11:52:00,58.0,38.0,-100.00,SSE,155,16.0,24.0,47,-99.99,,,-99.99,,2013-03-10 15:52:00,
2013-03-10 12:02:00,58.0,38.0,-100.00,SSE,155,16.0,24.0,47,-99.99,,,-99.99,,2013-03-10 16:02:00,
2013-03-10 12:12:00,59.0,38.0,-100.00,SSE,150,17.0,27.0,46,-99.99,,,-99.99,,2013-03-10 16:12:00,
2013-03-10 12:21:00,59.0,38.0,-100.00,SSE,150,17.0,27.0,46,-99.99,,,-99.99,,2013-03-10 16:21:00,
2013-03-10 12:32:00,59.0,38.0,-100.00,SSE,150,17.0,27.0,46,-99.99,,,-99.99,,2013-03-10 16:32:00,
2013-03-10 12:41:00,59.0,38.0,-100.00,SSE,150,17.0,27.0,46,-99.99,,,-99.99,,2013-03-10 16:41:00,
2013-03-10 19:12:00,59.0,39.0,-100.00,SE,130,14.0,16.0,48,-99.99,,,-99.99,,2013-03-10 23:12:00,
2013-03-10 19:23:00,59.0,39.0,-100.00,SE,125,12.0,17.0,46,-99.99,,,-99.99,,2013-03-10 23:23:00,
2013-03-10 19:33:00,59.0,39.0,-100.00,SE,125,11.0,18.0,47,-99.99,,,-99.99,,2013-03-10 23:33:00,
2013-03-10 19:42:00,58.0,39.0,-100.00,SE,135,9.0,14.0,48,-99.99,,,-99.99,,2013-03-10 23:42:00,
2013-03-10 19:52:00,58.0,39.0,-100.00,SE,135,9.0,14.0,48,-99.99,,,-99.99,,2013-03-10 23:52:00,
2013-03-10 20:02:00,57.0,38.0,-100.00,SE,130,10.0,14.0,49,-99.99,,,-99.99,,2013-03-11 00:02:00,
2013-03-10 20:12:00,58.0,38.0,-100.00,ESE,115,11.0,16.0,48,-99.99,,,-99.99,,2013-03-11 00:12:00,
2013-03-10 20:23:00,58.0,38.0,-100.00,ESE,115,7.0,14.0,48,-99.99,,,-99.99,,2013-03-11 00:23:00,
2013-03-10 20:33:00,58.0,38.0,-100.00,ESE,110,9.0,14.0,48,-99.99,,,-99.99,,2013-03-11 00:33:00,
2013-03-10 20:43:00,56.0,38.0,-100.00,SE,135,9.0,11.0,50,-99.99,,,-99.99,,2013-03-11 00:43:00,
2013-03-10 20:52:00,56.0,38.0,-100.00,ESE,120,9.0,11.0,52,-99.99,,,-99.99,,2013-03-11 00:52:00,
2013-03-10 21:03:00,57.0,39.0,-100.00,ESE,115,8.0,11.0,50,-99.99,,,-99.99,,2013-03-11 01:03:00,
2013-03-10 21:23:00,56.0,38.0,-100.00,SE,145,5.0,11.0,51,-99.99,,,-99.99,,2013-03-11 01:23:00,
2013-03-10 21:32:00,54.0,38.0,-100.00,SE,135,6.0,7.0,54,-99.99,,,-99.99,,2013-03-11 01:32:00,
2013-03-10 21:42:00,55.0,39.0,-100.00,ESE,120,6.0,7.0,53,-99.99,,,-99.99,,2013-03-11 01:42:00,
2013-03-10 21:52:00,54.0,39.0,-100.00,ESE,115,5.0,6.0,55,-99.99,,,-99.99,,2013-03-11 01:52:00,
2013-03-10 22:02:00,53.0,39.0,-100.00,ESE,120,5.0,6.0,57,-99.99,,,-99.99,,2013-03-11 02:02:00,
2013-03-10 22:12:00,53.0,39.0,-100.00,SE,135,4.0,6.0,59,-99.99,,,-99.99,,2013-03-11 02:12:00,
2013-03-10 22:23:00,53.0,40.0,-100.00,SE,130,6.0,7.0,59,-99.99,,,-99.99,,2013-03-11 02:23:00,
2013-03-10 22:32:00,55.0,40.0,-100.00,ESE,115,6.0,7.0,56,-99.99,,,-99.99,,2013-03-11 02:32:00,
2013-03-10 22:42:00,54.0,39.0,-100.00,SE,135,6.0,7.0,57,-99.99,,,-99.99,,2013-03-11 02:42:00,
2013-03-10 22:52:00,54.0,39.0,-100.00,ESE,105,4.0,7.0,56,-99.99,,,-99.99,,2013-03-11 02:52:00,
2013-03-10 23:02:00,55.0,39.0,-100.00,East,100,6.0,9.0,54,-99.99,,,-99.99,,2013-03-11 03:02:00,
2013-03-10 23:12:00,55.0,39.0,-100.00,SE,130,5.0,10.0,55,-99.99,,,-99.99,,2013-03-11 03:12:00,
2013-03-10 23:22:00,54.0,39.0,-100.00,SE,135,6.0,9.0,57,-99.99,,,-99.99,,2013-03-11 03:22:00,
2013-03-10 23:32:00,53.0,39.0,-100.00,SE,130,6.0,7.0,59,-99.99,,,-99.99,,2013-03-11 03:32:00,
2013-03-10 23:42:00,53.0,39.0,-100.00,SE,140,6.0,7.0,58,-99.99,,,-99.99,,2013-03-11 03:42:00,
2013-03-10 23:52:00,53.0,39.0,-100.00,SSE,150,5.0,6.0,58,-99.99,,,-99.99,,2013-03-11 03:52:00,